Location: Newark
(9.4667°S, 159.8167°E)
Time: 01:29:01
(UTC+00:00)

Vanguard 1 - Pass Details

Date: 19 November 2019
Orbit: 652 x 3832 km, 34.3° (Epoch: 09 December)

Event Time Altitude Azimuth Distance (km) Brightness Sun altitude
Rises 18:02:02 0° 234° (SW) 7,740 14.3 -11.6°
Reaches altitude 10° 18:07:09 10° 232° (SW) 6,864 14.1 -10.5°
Maximum altitude 18:31:15 79° 145° (SE) 3,510 13.0 -4.9°
Drops below altitude 10° 18:48:09 10° 60° (ENE) 5,123 14.4 -1.0°
Sets 18:51:18 0° 58° (ENE) 5,793 14.6 -0.3°
